Weather History for Cairns, QU

Change the Weather History Date:

Friday, March 15, 2013

  Actual Average Record
Temperature  
Mean Temperature 77 °F -  
Max Temperature 87 °F 86 °F 89 °F (2007)
Min Temperature 67 °F 72 °F 67 °F (2013)
Cooling Degree Days 12    
Growing Degree Days 27 (Base 50)    
Moisture  
Dew Point 65 °F    
Average Humidity 65    
Maximum Humidity 94    
Minimum Humidity 30    
Precipitation  
Precipitation 0.00 in 0.44 in - ()
Sea Level Pressure  
Sea Level Pressure 29.83 in    
Wind  
Wind Speed 5 mph ()    
Max Wind Speed 17 mph    
Max Gust Speed -    
Visibility 7.9 miles    
Events      
Averages and records for this station are not official NWS values.
T = Trace of Precipitation, MM = Missing Value Source: Averaged Metar Reports

Daily Weather History Graph

Daily Weather History Graph

Search for Another Location

Airport:

Trip Planner

Search our weather history database for the weather conditions in past years. The results will help you decide how hot, cold, wet, or windy it might be!

Date:

Astronomy

Mar. 15, 2013 Rise Set
Actual Time 6:19 AM EST 6:31 PM EST
Civil Twilight 5:58 AM EST 6:53 PM EST
Nautical Twilight 5:33 AM EST 7:18 PM EST
Astronomical Twilight 5:07 AM EST 7:43 PM EST
Moon 9:00 AM EST (3/15) 8:46 PM EST (3/15)
Length of Visible Light 12h 55m
Length of Day
12h 11m
Waxing Crescent, 11% of the Moon is Illuminated
Mar 15
Waxing Crescent
Mar 20
First Quarter
Mar 27
Full
Apr 3
Last Quarter
Apr 10
New

Hourly Weather History & Observations

Time (EST) Temp. Heat Index Dew Point Humidity Pressure Visibility Wind Dir Wind Speed Gust Speed Precip Events Conditions
12:00 AM 76 °F - 63 °F 54% 29.82 in - SSW 3.5 mph - -  
12:00 AM 77.0 °F - 62.6 °F 61% 29.80 in 6.2 mi SSW 3.5 mph - N/A   Partly Cloudy
12:30 AM 73.4 °F - 66.2 °F 78% 29.80 in 6.2 mi North 4.6 mph - N/A   Partly Cloudy
1:00 AM 72 °F - 67 °F 79% 29.82 in - NW 3.5 mph - -  
1:00 AM 71.6 °F - 66.2 °F 83% 29.80 in 6.2 mi NW 3.5 mph - N/A   Partly Cloudy
1:30 AM 71.6 °F - 66.2 °F 83% 29.80 in - Calm Calm - N/A   Clear
2:00 AM 69.8 °F - 66.2 °F 88% 29.77 in - South 4.6 mph - N/A   Clear
2:30 AM 71.6 °F - 66.2 °F 83% 29.80 in - West 4.6 mph - N/A   Clear
3:00 AM 70 °F - 67 °F 85% 29.80 in - West 3.5 mph - -  
3:00 AM 69.8 °F - 66.2 °F 88% 29.80 in - West 3.5 mph - N/A   Clear
3:30 AM 69.8 °F - 66.2 °F 88% 29.80 in - NW 2.3 mph - N/A   Clear
4:00 AM 69 °F - 66 °F 89% 29.81 in - West 3.5 mph - -  
4:00 AM 69.8 °F - 66.2 °F 88% 29.80 in - West 3.5 mph - N/A   Clear
4:30 AM 69.8 °F - 66.2 °F 88% 29.80 in - West 4.6 mph - N/A   Clear
5:00 AM 68.0 °F - 66.2 °F 94% 29.80 in - WNW 1.2 mph - N/A   Clear
5:30 AM 68.0 °F - 66.2 °F 94% 29.83 in - WNW 2.3 mph - N/A   Clear
6:00 AM 68 °F - 67 °F 94% 29.83 in 19 mi Calm Calm - -   Partly Cloudy
6:00 AM 68.0 °F - 66.2 °F 94% 29.83 in 6.2 mi Calm Calm - N/A   Scattered Clouds
6:30 AM 69.8 °F - 66.2 °F 88% 29.83 in 6.2 mi SE 6.9 mph - N/A   Mostly Cloudy
7:00 AM 70 °F - 67 °F 88% 29.86 in - WNW 2.3 mph - -  
7:00 AM 69.8 °F - 68.0 °F 94% 29.83 in 6.2 mi WNW 2.3 mph - N/A   Mostly Cloudy
7:30 AM 73.4 °F - 68.0 °F 83% 29.86 in 6.2 mi WNW 4.6 mph - N/A   Mostly Cloudy
8:00 AM 77.0 °F - 68.0 °F 74% 29.86 in 6.2 mi Calm Calm - N/A   Scattered Clouds
8:30 AM 78.8 °F - 68.0 °F 69% 29.86 in 6.2 mi NW 1.2 mph - N/A   Scattered Clouds
9:00 AM 80 °F - 68 °F 60% 29.88 in 19 mi ESE 3.5 mph - -   Partly Cloudy
9:00 AM 80.6 °F 83.2 °F 68.0 °F 65% 29.86 in 6.2 mi ESE 3.5 mph - N/A   Scattered Clouds
9:30 AM 82.4 °F 85.4 °F 68.0 °F 62% 29.86 in 6.2 mi SE 5.8 mph - N/A   Scattered Clouds
10:00 AM 83 °F - 66 °F 48% 29.89 in - South 6.9 mph - -  
10:00 AM 82.4 °F 84.6 °F 66.2 °F 58% 29.86 in 6.2 mi South 6.9 mph - N/A   Scattered Clouds
10:30 AM 84.2 °F 87.3 °F 68.0 °F 58% 29.86 in 6.2 mi SSE 6.9 mph - N/A   Scattered Clouds
11:00 AM 86.0 °F 89.4 °F 68.0 °F 55% 29.86 in 6.2 mi SSE 6.9 mph - N/A   Scattered Clouds
11:30 AM 86.0 °F 89.4 °F 68.0 °F 55% 29.86 in 6.2 mi South 4.6 mph - N/A   Scattered Clouds
12:00 PM 85 °F - 69 °F 51% 29.84 in 19 mi NNE 8.1 mph - -   Partly Cloudy
12:00 PM 86.0 °F 90.4 °F 69.8 °F 58% 29.83 in 6.2 mi NNE 8.1 mph - N/A   Scattered Clouds
12:30 PM 86.0 °F 90.4 °F 69.8 °F 58% 29.83 in 6.2 mi NE 12.7 mph - N/A   Scattered Clouds
1:00 PM 86 °F - 70 °F 50% 29.83 in - NE 11.5 mph - -  
1:00 PM 86.0 °F 90.4 °F 69.8 °F 58% 29.80 in 6.2 mi NE 11.5 mph - N/A   Scattered Clouds
1:30 PM 86.0 °F 90.4 °F 69.8 °F 58% 29.80 in 6.2 mi North 10.4 mph - N/A   Scattered Clouds
2:00 PM 87.8 °F 90.4 °F 66.2 °F 49% 29.77 in - ENE 12.7 mph - N/A   Clear
2:30 PM 86.0 °F 88.2 °F 66.2 °F 51% 29.77 in 6.2 mi ENE 13.8 mph - N/A   Scattered Clouds
3:00 PM 87 °F - 65 °F 38% 29.78 in 19 mi East 12.7 mph - -   Partly Cloudy
3:00 PM 86.0 °F 87.3 °F 64.4 °F 48% 29.77 in 6.2 mi East 12.7 mph - N/A   Scattered Clouds
3:30 PM 87.8 °F 87.1 °F 59.0 °F 38% 29.77 in 6.2 mi ESE 16.1 mph - N/A   Scattered Clouds
4:00 PM 85 °F - 58 °F 30% 29.78 in - SE 16.1 mph - -  
4:00 PM 86.0 °F 85.4 °F 59.0 °F 40% 29.77 in 6.2 mi SE 16.1 mph - N/A   Scattered Clouds
4:30 PM 86.0 °F 84.9 °F 57.2 °F 37% 29.77 in 6.2 mi SE 17.3 mph - N/A   Scattered Clouds
5:00 PM 86.0 °F 85.4 °F 59.0 °F 40% 29.77 in 6.2 mi SE 17.3 mph - N/A   Scattered Clouds
5:30 PM 84.2 °F 83.8 °F 59.0 °F 42% 29.77 in 6.2 mi SE 17.3 mph - N/A   Scattered Clouds
6:00 PM 83 °F - 61 °F 37% 29.80 in 25 mi SE 16.1 mph - -   Partly Cloudy
6:00 PM 82.4 °F 82.9 °F 60.8 °F 48% 29.80 in - SE 16.1 mph - N/A   Clear
6:30 PM 80.6 °F 81.8 °F 62.6 °F 54% 29.80 in - SE 13.8 mph - N/A   Clear
7:00 PM 80 °F - 63 °F 47% 29.84 in - SSE 10.4 mph - -  
7:00 PM 80.6 °F 81.8 °F 62.6 °F 54% 29.83 in 6.2 mi SSE 10.4 mph - N/A   Mostly Cloudy
7:30 PM 78.8 °F - 62.6 °F 57% 29.83 in 6.2 mi South 8.1 mph - N/A   Mostly Cloudy
8:00 PM 78.8 °F - 62.6 °F 57% 29.86 in 6.2 mi South 8.1 mph - N/A   Mostly Cloudy
8:30 PM 78.8 °F - 62.6 °F 57% 29.86 in 6.2 mi South 6.9 mph - N/A   Scattered Clouds
9:00 PM 79 °F - 62 °F 45% 29.88 in 19 mi South 8.1 mph - -   Partly Cloudy
9:00 PM 78.8 °F - 60.8 °F 54% 29.89 in 6.2 mi South 8.1 mph - N/A   Partly Cloudy
9:30 PM 77.0 °F - 62.6 °F 61% 29.89 in 6.2 mi South 3.5 mph - N/A   Partly Cloudy
10:00 PM 75 °F - 65 °F 62% 29.91 in - Calm Calm - -  
10:00 PM 75.2 °F - 64.4 °F 69% 29.89 in 6.2 mi Calm Calm - N/A   Partly Cloudy
10:30 PM 73.4 °F - 64.4 °F 73% 29.89 in - Calm Calm - N/A   Clear
11:00 PM 71.6 °F - 64.4 °F 78% 29.89 in - Calm Calm - N/A   Clear
11:30 PM 73.4 °F - 64.4 °F 73% 29.89 in - SSE 4.6 mph - N/A   Clear